sat.trackr.live / text

‹ back to catalog

IRIDE-MS2-HEO-1

NORAD 62697 · 2025-009CS

PAYLOAD ACTIVE UNKNOWN

§ Identity

Operator
Country
IT
Launch date
2025-01-14
Launch site
AFWTR
Launch vehicle
Mass (kg)
RCS (m²)

External: N2YO · Heavens-Above · Gunter

§ Orbital elements

Epoch: 2026-09-22T20:12:16.961472Z

Period
96.34 min
Inclination
97.6975°
Eccentricity
0.0003498
Mean motion
14.94683421 rev/d
Perigee alt
580.9 km
Apogee alt
585.8 km
Semi-major
6,961.5 km
B*
1.2262e-4
RAAN
342.3173°
Arg perigee
61.9203°
Mean anomaly
298.2371°
Rev number
9,192

§ Raw data

IRIDE-MS2-HEO-11 62697U 25009CS  26265.84186298  .00001274  00000+0  12262-3 0  99922 62697  97.6975 342.3173 0003498  61.9203 298.2371 14.94683421 91928

JSON: /api/v1/satellites/62697 · /tle

For live sub-satellite position, see the globe view (requires WebGL).

§ Visibility from observer

Set your observer location to see the next 7 days of passes ≥ 10°. The values pass through the URL so the page stays shareable.

No JS? Fill the form by hand. The geolocation button needs JavaScript.

§ Radio — SatNOGS DB

ModeDescriptionDownlinkUplink
FM Mode S - Transmitter 2.264 GHz
FM Mode X - Transmitter 8.180 GHz

2 transmitters · refreshed weekly from db.satnogs.org